Bullhead City, AZ

2:53 AM MST on October 17, 2017 (GMT -0700)
Laughlin-Bullhead International

Weather History for KIFP - June, 2014

Change the Weather History Date:

Monday, June 9, 2014

  Actual Average Record
Temperature  
Mean Temperature 94 °F -  
Max Temperature 109 °F 99 °F 109 °F (2014)
Min Temperature 80 °F 76 °F 60 °F (1988)
Cooling Degree Days 30    
Growing Degree Days 44 (Base 50)    
Moisture  
Dew Point -    
Average Humidity    
Maximum Humidity    
Minimum Humidity    
Precipitation  
Precipitation 0.00 in - - ()
Sea Level Pressure  
Sea Level Pressure 29.70 in    
Wind  
Wind Speed 4 mph (SSW)    
Max Wind Speed 16 mph    
Max Gust Speed 22 mph    
Visibility 10 miles    
Events      
Averages and records for this station are not official NWS values.
T = Trace of Precipitation, MM = Missing Value Source: NWS Daily Summary

Daily Weather History Graph

Daily Weather History Graph

Search for Another Location

Airport or City:

Trip Planner

Search our weather history database for the weather conditions in past years. The results will help you decide how hot, cold, wet, or windy it might be!

Date:

Astronomy

Jun. 09, 2014 Rise Set
Actual Time 5:23 AM MST 7:51 PM MST
Civil Twilight 4:53 AM MST 8:21 PM MST
Nautical Twilight 4:17 AM MST 8:58 PM MST
Astronomical Twilight 3:36 AM MST 9:38 PM MST
Moon 4:23 PM MST (6/9) 2:45 AM MST (6/9)
Length of Visible Light 15h 27m
Length of Day
14h 28m
Waxing Gibbous, 86% of the Moon is Illuminated
Jun 9
Waxing Gibbous
Jun 12
Full
Jun 19
Last Quarter
Jun 27
New
Jul 5
First Quarter

Hourly Weather History & Observations

Time (MST) Temp. Dew Point Humidity Pressure Visibility Wind Dir Wind Speed Gust Speed Precip Events Conditions
12:15 AM 93.2 °F - N/A% 29.69 in 10.0 mi Calm Calm - N/A   Clear
12:35 AM 93.2 °F - N/A% 29.69 in 10.0 mi Calm Calm - N/A   Clear
12:55 AM 91.4 °F - N/A% 29.68 in 10.0 mi Calm Calm - N/A   Clear
1:15 AM 86.0 °F - N/A% 29.68 in 10.0 mi Calm Calm - N/A   Clear
1:35 AM 89.6 °F - N/A% 29.68 in 10.0 mi Calm Calm - N/A   Clear
1:55 AM 89.6 °F - N/A% 29.69 in 10.0 mi Calm Calm - N/A   Clear
2:15 AM 86.0 °F - N/A% 29.69 in 10.0 mi Calm Calm - N/A   Clear
2:35 AM 86.0 °F - N/A% 29.69 in 10.0 mi Calm Calm - N/A   Clear
2:55 AM 86.0 °F - N/A% 29.70 in 10.0 mi ENE 4.6 mph - N/A   Clear
3:15 AM 82.4 °F - N/A% 29.70 in 10.0 mi NNW 5.8 mph - N/A   Clear
3:35 AM 84.2 °F - N/A% 29.71 in 10.0 mi NNE 6.9 mph - N/A   Clear
3:55 AM 84.2 °F - N/A% 29.71 in 10.0 mi Calm Calm - N/A   Clear
4:15 AM 84.2 °F - N/A% 29.72 in 10.0 mi Calm Calm - N/A   Clear
4:35 AM 84.2 °F - N/A% 29.72 in 10.0 mi Calm Calm - N/A   Clear
4:55 AM 82.4 °F - N/A% 29.73 in 10.0 mi Calm Calm - N/A   Clear
5:15 AM 82.4 °F - N/A% 29.73 in 10.0 mi Calm Calm - N/A   Clear
5:35 AM 80.6 °F - N/A% 29.74 in 10.0 mi Calm Calm - N/A   Clear
5:55 AM 80.6 °F - N/A% 29.75 in 10.0 mi Calm Calm - N/A   Clear
6:15 AM 80.6 °F - N/A% 29.76 in 10.0 mi Calm Calm - N/A   Clear
6:35 AM 82.4 °F - N/A% 29.76 in 10.0 mi Calm Calm - N/A   Clear
6:55 AM 84.2 °F - N/A% 29.76 in 10.0 mi Calm Calm - N/A   Clear
7:15 AM 89.6 °F - N/A% 29.77 in 10.0 mi North 10.4 mph - N/A   Clear
7:35 AM 91.4 °F - N/A% 29.77 in 10.0 mi North 16.1 mph 21.9 mph N/A   Clear
7:55 AM 93.2 °F - N/A% 29.77 in 10.0 mi NNE 16.1 mph - N/A   Clear
8:15 AM 93.2 °F - N/A% 29.78 in 10.0 mi NNE 16.1 mph - N/A   Clear
8:35 AM 95.0 °F - N/A% 29.78 in 10.0 mi North 13.8 mph - N/A   Clear
8:55 AM 95.0 °F - N/A% 29.79 in 10.0 mi NNW 13.8 mph 20.7 mph N/A   Clear
9:15 AM 95.0 °F - N/A% 29.79 in 10.0 mi Calm Calm - N/A   Clear
9:55 AM 95.0 °F - N/A% 29.79 in 10.0 mi SW 5.8 mph - N/A   Clear
10:15 AM 98.6 °F - N/A% 29.79 in 10.0 mi South 5.8 mph - N/A   Clear
10:35 AM 98.6 °F - N/A% 29.79 in 10.0 mi SW 4.6 mph - N/A   Clear
10:55 AM 98.6 °F - N/A% 29.79 in 10.0 mi West 3.5 mph - N/A   Clear
11:15 AM 100.4 °F - N/A% 29.78 in 10.0 mi SW 8.1 mph - N/A   Clear
11:35 AM 100.4 °F - N/A% 29.77 in 10.0 mi SSW 5.8 mph - N/A   Clear
12:55 PM 104.0 °F - N/A% 29.74 in 10.0 mi SW 4.6 mph - N/A   Clear
1:15 PM 104.0 °F - N/A% 29.73 in 10.0 mi South 9.2 mph 16.1 mph N/A   Clear
1:35 PM 105.8 °F - N/A% 29.72 in 10.0 mi SSW 10.4 mph 16.1 mph N/A   Clear
1:55 PM 105.8 °F - N/A% 29.71 in 10.0 mi SSW 12.7 mph - N/A   Clear
2:15 PM 107.6 °F - N/A% 29.71 in 10.0 mi SW 13.8 mph 19.6 mph N/A   Clear
2:35 PM 107.6 °F - N/A% 29.70 in 10.0 mi SW 9.2 mph - N/A   Clear
2:55 PM 107.6 °F - N/A% 29.69 in 10.0 mi SSW 12.7 mph 17.3 mph N/A   Clear
3:15 PM 109.4 °F - N/A% 29.68 in 10.0 mi SW 10.4 mph - N/A   Clear
3:35 PM 107.6 °F - N/A% 29.67 in 10.0 mi South 8.1 mph - N/A   Clear
3:55 PM 107.6 °F - N/A% 29.66 in 10.0 mi West 3.5 mph - N/A   Clear
4:15 PM 109.4 °F - N/A% 29.65 in 10.0 mi SSW 12.7 mph 16.1 mph N/A   Clear
4:35 PM 109.4 °F - N/A% 29.64 in 10.0 mi South 9.2 mph - N/A   Clear
4:55 PM 109.4 °F - N/A% 29.64 in 10.0 mi SW 5.8 mph - N/A   Clear
5:15 PM 107.6 °F - N/A% 29.63 in 10.0 mi South 6.9 mph - N/A   Clear
5:35 PM 107.6 °F - N/A% 29.63 in 10.0 mi Calm Calm - N/A   Clear
5:55 PM 107.6 °F - N/A% 29.62 in 10.0 mi SSE 10.4 mph - N/A   Clear
6:15 PM 107.6 °F - N/A% 29.62 in 10.0 mi SSE 8.1 mph - N/A   Clear
6:35 PM 107.6 °F - N/A% 29.62 in 10.0 mi SSE 10.4 mph - N/A   Clear
6:55 PM 107.6 °F - N/A% 29.61 in 10.0 mi South 12.7 mph - N/A   Clear
7:15 PM 107.6 °F - N/A% 29.61 in 10.0 mi SSE 11.5 mph 16.1 mph N/A   Clear
7:35 PM 105.8 °F - N/A% 29.62 in 10.0 mi South 12.7 mph - N/A   Clear
8:15 PM 104.0 °F - N/A% 29.62 in 10.0 mi South 13.8 mph - N/A   Clear
8:35 PM 102.2 °F - N/A% 29.62 in 10.0 mi SSE 11.5 mph - N/A   Clear
8:55 PM 100.4 °F - N/A% 29.63 in 10.0 mi SSW 3.5 mph - N/A   Clear
9:15 PM 98.6 °F - N/A% 29.64 in 10.0 mi SW 3.5 mph - N/A   Clear
9:35 PM 95.0 °F - N/A% 29.65 in 10.0 mi Calm Calm - N/A   Clear
9:55 PM 95.0 °F - N/A% 29.65 in 10.0 mi SE 3.5 mph - N/A   Clear
10:15 PM 95.0 °F - N/A% 29.65 in 10.0 mi Calm Calm - N/A   Clear
10:35 PM 95.0 °F - N/A% 29.65 in 10.0 mi Calm Calm - N/A   Clear
10:55 PM 93.2 °F - N/A% 29.65 in 10.0 mi Calm Calm - N/A   Clear
11:15 PM 93.2 °F - N/A% 29.66 in 10.0 mi Calm Calm - N/A   Clear
11:35 PM 91.4 °F - N/A% 29.66 in 10.0 mi Calm Calm - N/A   Clear
11:55 PM 91.4 °F - N/A% 29.66 in 10.0 mi Calm Calm - N/A   Clear